Location: Denia
(38.8500°N, 0.1170°E)
Time: 02:33:52
(UTC+01:00)

Envisat - Visible Passes

Search period start: 20 January 2020 00:00
Search period end: 30 January 2020 00:00
Orbit: 764 x 766 km, 98.1° (Epoch: 19 January)

Date Brightness Start Highest point End Pass type
(mag) Time Alt. Az. Time Alt. Az. Time Alt. Az.
20 Jan 4.9 07:01:21 10° NNE 07:05:56 33° E 07:10:29 10° SSE visible
20 Jan 5.5 19:54:24 10° SW 19:58:22 23° W 20:02:21 10° NW visible
21 Jan 6.1 06:26:06 10° ENE 06:28:52 15° E 06:31:37 10° SE visible
21 Jan 3.9 19:16:28 10° S 19:21:24 52° W 19:26:22 10° NNW visible
22 Jan 3.7 07:26:29 10° NNE 07:31:31 60° E 07:36:31 10° S visible
22 Jan 3.0 18:39:35 10° SSE 18:44:37 69° ENE 18:49:41 10° N visible
22 Jan 6.2 20:22:00 10° WSW 20:24:06 12° W 20:26:13 10° WNW visible
23 Jan 5.4 06:50:21 10° NE 06:54:35 26° E 06:58:47 10° SSE visible
23 Jan 5.1 19:42:37 10° SSW 19:47:00 29° W 19:51:23 10° NW visible
24 Jan 6.4 06:16:03 10° ENE 06:17:27 11° E 06:18:50 10° ESE visible
24 Jan 3.4 19:05:03 10° S 19:10:05 67° WSW 19:15:09 10° NNW visible
25 Jan 4.2 07:15:18 10° NNE 07:20:12 47° E 07:25:04 10° S visible
25 Jan 6.0 20:09:34 10° SW 20:12:41 16° W 20:15:49 10° NW visible
26 Jan 5.8 06:39:26 10° NE 06:43:12 21° E 06:46:57 10° SE visible
26 Jan 4.6 19:30:59 10° SSW 19:35:38 37° W 19:40:20 10° NNW visible
27 Jan 3.1 07:40:36 10° NNE 07:45:43 84° ESE 07:50:48 10° SSW visible
27 Jan 3.1 18:53:43 10° SSE 18:58:47 85° WSW 19:03:54 10° NNW visible
28 Jan 4.7 07:04:11 10° NNE 07:08:51 36° E 07:13:31 10° SSE visible
28 Jan 5.7 19:57:32 10° SW 20:01:18 21° W 20:05:05 10° NW visible
29 Jan 6.1 06:28:42 10° NE 06:31:48 16° E 06:34:53 10° SE visible
29 Jan 4.1 19:19:26 10° S 19:24:18 47° W 19:29:13 10° NNW visible
